JS2WAD-13 Weather Reports


Display with metric or nautical units.
time (UTC)temp
F
wind
direction
speed
MPH
gust
MPH
rain 1hr
in
rain 24hr
in
rain mn
in
humidity
%
barometer
mb
20260509135109 62 41 4.0 10.0 0.00 0.00 0.00 53 909.6
20260509134609 62 29 4.0 6.0 0.00 0.00 0.00 53 909.5
20260509134109 62 33 4.0 9.0 0.00 0.00 0.00 53 909.4
20260509133609 62 37 3.0 7.0 0.00 0.00 0.00 52 909.4
20260509133109 62 44 3.0 6.0 0.00 0.00 0.00 53 909.5
20260509132609 63 32 4.0 6.0 0.00 0.00 0.00 53 909.5
20260509132109 63 40 4.0 10.0 0.00 0.00 0.00 53 909.4
20260509131609 63 31 2.0 6.0 0.00 0.00 0.00 53 909.4
20260509131112 63 25 1.0 5.0 0.00 0.00 0.00 60 909.3
20260509130609 63 36 1.0 2.0 0.00 0.00 0.00 55 909.3
20260509130109 63 35 2.0 4.0 0.00 0.00 0.00 55 909.3
20260509125609 63 37 2.0 6.0 0.00 0.00 0.00 54 909.2
20260509125109 63 38 2.0 6.0 0.00 0.00 0.00 54 909.1
20260509124609 63 43 3.0 5.0 0.00 0.00 0.00 53 909.1
20260509124109 63 40 4.0 8.0 0.00 0.00 0.00 54 909.1
20260509123609 63 37 3.0 8.0 0.00 0.00 0.00 54 909.2
20260509123109 63 43 4.0 8.0 0.00 0.00 0.00 55 909.2
20260509122609 63 39 6.0 10.0 0.00 0.00 0.00 53 909.3
20260509122109 63 45 7.0 11.0 0.00 0.00 0.00 53 909.2
20260509121609 63 38 7.0 12.0 0.00 0.00 0.00 52 909.2
20260509121109 64 24 6.0 13.0 0.00 0.00 0.00 53 909.2
20260509120609 64 16 5.0 10.0 0.00 0.00 0.00 54 909.2
20260509120109 64 23 4.0 9.0 0.00 0.00 0.00 51 909.2
20260509115610 64 9 4.0 8.0 0.00 0.00 0.00 51 909.2
20260509115110 64 35 4.0 10.0 0.00 0.00 0.00 52 909.1
20260509114610 64 31 4.0 10.0 0.00 0.00 0.00 54 909.1
20260509114110 64 33 4.0 9.0 0.00 0.00 0.00 50 909.1
20260509113610 65 50 4.0 8.0 0.00 0.00 0.00 50 909.1
20260509113110 65 30 4.0 9.0 0.00 0.00 0.00 51 909.0
20260509112610 65 29 5.0 11.0 0.00 0.00 0.00 51 909.0
20260509112110 65 10 6.0 12.0 0.00 0.00 0.00 50 908.9
20260509111610 65 12 5.0 11.0 0.00 0.00 0.00 49 908.8
20260509111110 65 31 6.0 10.0 0.00 0.00 0.00 48 908.9
20260509110610 65 27 5.0 14.0 0.00 0.00 0.00 47 908.8
20260509110110 65 39 4.0 6.0 0.00 0.00 0.00 48 908.7
20260509105610 66 24 4.0 11.0 0.00 0.00 0.00 47 908.7
20260509105110 66 15 5.0 9.0 0.00 0.00 0.00 47 908.5
20260509104610 66 51 6.0 11.0 0.00 0.00 0.00 48 908.5
20260509104110 66 24 8.0 13.0 0.00 0.00 0.00 47 908.3
20260509103610 66 16 7.0 13.0 0.00 0.00 0.00 46 908.2
20260509103110 66 41 6.0 12.0 0.00 0.00 0.00 46 908.2
20260509102610 67 43 6.0 14.0 0.00 0.00 0.00 52 908.1
20260509102110 67 26 6.0 10.0 0.00 0.00 0.00 45 907.6
20260509101610 67 34 5.0 11.0 0.00 0.00 0.00 44 907.6
20260509101110 67 20 6.0 10.0 0.00 0.00 0.00 45 907.5
20260509100610 67 27 6.0 15.0 0.00 0.00 0.00 44 907.5
20260509100110 67 29 6.0 12.0 0.00 0.00 0.00 44 907.5
20260509095610 67 15 8.0 11.0 0.00 0.00 0.00 44 907.4
20260509095110 67 23 8.0 14.0 0.00 0.00 0.00 43 907.2
20260509094610 68 26 8.0 17.0 0.00 0.00 0.00 43 907.2
20260509094110 68 27 8.0 15.0 0.00 0.00 0.00 42 907.1
20260509093610 68 37 7.0 14.0 0.00 0.00 0.00 42 906.9
20260509093110 68 23 7.0 15.0 0.00 0.00 0.00 42 906.9
20260509092610 69 20 7.0 15.0 0.00 0.00 0.00 43 906.7
20260509092110 69 36 8.0 13.0 0.00 0.00 0.00 42 906.7
20260509091610 69 41 8.0 18.0 0.00 0.00 0.00 42 906.6
20260509091110 69 280 8.0 13.0 0.00 0.00 0.00 42 906.6
20260509090610 69 40 10.0 22.0 0.00 0.00 0.00 42 906.6
20260509090110 69 345 8.0 22.0 0.00 0.00 0.00 41 906.6
20260509085610 70 349 7.0 15.0 0.00 0.00 0.00 40 906.7
20260509085110 70 29 6.0 18.0 0.00 0.00 0.00 43 906.6
20260509084610 71 42 5.0 14.0 0.00 0.00 0.00 40 906.4
20260509084110 71 359 7.0 14.0 0.00 0.00 0.00 40 906.5
20260509083610 71 40 9.0 18.0 0.00 0.00 0.00 37 906.4
20260509083110 71 27 9.0 18.0 0.00 0.00 0.00 31 906.5
20260509082610 71 37 10.0 19.0 0.00 0.00 0.00 37 906.3
20260509082110 71 33 11.0 20.0 0.00 0.00 0.00 30 906.3
20260509081610 72 43 9.0 19.0 0.00 0.00 0.00 31 906.2
20260509081110 72 33 9.0 15.0 0.00 0.00 0.00 30 906.2
20260509080610 72 26 9.0 17.0 0.00 0.00 0.00 30 906.2
20260509080110 72 40 7.0 17.0 0.00 0.00 0.00 30 906.4
20260509075610 72 4 7.0 13.0 0.00 0.00 0.00 31 906.2
20260509075110 72 339 8.0 14.0 0.00 0.00 0.00 31 906.1
20260509074610 72 20 9.0 17.0 0.00 0.00 0.00 31 906.1
20260509074110 72 31 9.0 15.0 0.00 0.00 0.00 30 906.2
20260509073610 73 28 9.0 17.0 0.00 0.00 0.00 31 906.2
20260509073110 73 26 9.0 15.0 0.00 0.00 0.00 31 906.1
20260509072610 73 26 9.0 20.0 0.00 0.00 0.00 31 906.2
20260509072110 73 23 6.0 13.0 0.00 0.00 0.00 29 906.1
20260509071610 73 20 5.0 12.0 0.00 0.00 0.00 35 906.2
20260509071110 73 32 8.0 16.0 0.00 0.00 0.00 28 906.2
20260509070610 73 43 9.0 19.0 0.00 0.00 0.00 33 906.2
20260509070110 73 33 9.0 16.0 0.00 0.00 0.00 29 906.1
20260509065610 73 42 9.0 17.0 0.00 0.00 0.00 29 906.2
20260509065110 73 44 10.0 16.0 0.00 0.00 0.00 29 905.9
20260509064610 73 37 9.0 19.0 0.00 0.00 0.00 32 905.9
20260509064110 73 38 9.0 16.0 0.00 0.00 0.00 27 905.9
20260509063610 73 40 10.0 16.0 0.00 0.00 0.00 29 905.8
20260509063110 73 51 11.0 20.0 0.00 0.00 0.00 29 905.8
20260509062610 73 349 8.0 19.0 0.00 0.00 0.00 28 905.7
20260509062110 73 25 8.0 17.0 0.00 0.00 0.00 28 905.8
20260509061610 73 43 11.0 22.0 0.00 0.00 0.00 29 905.7
20260509061110 73 35 9.0 22.0 0.00 0.00 0.00 28 905.7
20260509060610 73 39 8.0 18.0 0.00 0.00 0.00 29 905.4
20260509060110 73 40 10.0 16.0 0.00 0.00 0.00 29 905.5
20260509055610 73 29 10.0 16.0 0.00 0.00 0.00 29 905.5
20260509055110 73 25 10.0 18.0 0.00 0.00 0.00 30 905.8
20260509054610 72 18 10.0 20.0 0.00 0.00 0.00 29 905.1
20260509054110 73 39 9.0 19.0 0.00 0.00 0.00 30 905.0
20260509053610 73 23 11.0 19.0 0.00 0.00 0.00 30 905.5
20260509053110 73 4 11.0 22.0 0.00 0.00 0.00 30 905.4
20260509052610 73 33 10.0 17.0 0.00 0.00 0.00 33 905.6
20260509052110 72 17 11.0 17.0 0.00 0.00 0.00 32 905.4
20260509051610 72 22 11.0 19.0 0.00 0.00 0.00 31 905.5
20260509051110 73 38 10.0 18.0 0.00 0.00 0.00 28 905.3
20260509050610 73 16 10.0 18.0 0.00 0.00 0.00 30 905.5
20260509050110 72 13 11.0 22.0 0.00 0.00 0.00 33 905.8
20260509045610 72 32 11.0 20.0 0.00 0.00 0.00 30 905.5
20260509045111 72 32 11.0 20.0 0.00 0.00 0.00 33 905.9
20260509044610 71 41 11.0 22.0 0.00 0.00 0.00 32 905.6
20260509044110 72 25 10.0 21.0 0.00 0.00 0.00 31 905.8
20260509043610 72 354 10.0 21.0 0.00 0.00 0.00 32 905.8
20260509043111 72 34 11.0 20.0 0.00 0.00 0.00 31 906.1
20260509042611 72 45 9.0 18.0 0.00 0.00 0.00 34 906.2
20260509042110 73 31 8.0 20.0 0.00 0.00 0.00 32 905.9
20260509041611 72 35 10.0 18.0 0.00 0.00 0.00 32 906.3
20260509041111 72 36 10.0 17.0 0.00 0.00 0.00 32 906.1
20260509040611 71 359 9.0 16.0 0.00 0.00 0.00 32 905.8
20260509040111 71 35 9.0 15.0 0.00 0.00 0.00 32 905.9
20260509035611 71 37 10.0 15.0 0.00 0.00 0.00 35 906.2
20260509035111 71 27 9.0 19.0 0.00 0.00 0.00 35 906.1
20260509034611 71 31 7.0 17.0 0.00 0.00 0.00 34 906.2
20260509034111 71 42 8.0 15.0 0.00 0.00 0.00 35 906.4
20260509033611 70 35 10.0 15.0 0.00 0.00 0.00 35 906.3
20260509033111 70 14 12.0 19.0 0.00 0.00 0.00 38 906.4
20260509032611 70 38 11.0 22.0 0.00 0.00 0.00 35 906.4
20260509032111 70 16 8.0 20.0 0.00 0.00 0.00 36 906.4
20260509031611 70 39 9.0 14.0 0.00 0.00 0.00 37 906.5
20260509031111 69 359 9.0 22.0 0.00 0.00 0.00 38 906.6
20260509030611 69 359 10.0 14.0 0.00 0.00 0.00 40 906.6
20260509030111 69 29 9.0 26.0 0.00 0.00 0.00 38 906.5
20260509025611 69 10 9.0 13.0 0.00 0.00 0.00 39 906.4
20260509025111 68 14 11.0 23.0 0.00 0.00 0.00 40 906.5
20260509024611 68 193 9.0 21.0 0.00 0.00 0.00 38 906.5
20260509024111 68 349 9.0 16.0 0.00 0.00 0.00 38 906.5
20260509023611 68 33 10.0 18.0 0.00 0.00 0.00 39 906.3
20260509023111 68 36 11.0 21.0 0.00 0.00 0.00 39 906.4
20260509022611 68 35 9.0 19.0 0.00 0.00 0.00 40 906.6
20260509022111 68 25 7.0 18.0 0.00 0.00 0.00 41 906.5
20260509021611 67 354 9.0 15.0 0.00 0.00 0.00 40 906.7
20260509021111 67 4 10.0 21.0 0.00 0.00 0.00 48 906.8
20260509020611 67 12 9.0 15.0 0.00 0.00 0.00 41 906.7
20260509020111 67 45 10.0 17.0 0.00 0.00 0.00 41 906.7
20260509015611 66 39 10.0 19.0 0.00 0.00 0.00 46 906.8
20260509015111 66 39 12.0 16.0 0.00 0.00 0.00 43 906.5
20260509014611 66 31 13.0 28.0 0.00 0.00 0.00 42 906.9
20260509014111 65 39 11.0 23.0 0.00 0.00 0.00 44 906.6
20260509013611 65 23 10.0 23.0 0.00 0.00 0.00 45 907.0
20260509013111 65 35 12.0 21.0 0.00 0.00 0.00 47 906.7
20260509012611 65 36 11.0 21.0 0.00 0.00 0.00 43 906.8
20260509012111 65 16 8.0 16.0 0.00 0.00 0.00 43 906.4
20260509011611 65 46 10.0 15.0 0.00 0.00 0.00 45 906.9
20260509011111 65 26 9.0 25.0 0.00 0.00 0.00 46 906.9
20260509010611 65 28 9.0 17.0 0.00 0.00 0.00 45 906.9
20260509010111 65 26 10.0 17.0 0.00 0.00 0.00 45 906.9
20260509005611 65 30 9.0 24.0 0.00 0.00 0.00 51 907.0
20260509005111 64 359 9.0 15.0 0.00 0.00 0.00 49 907.1
20260509004611 64 30 10.0 20.0 0.00 0.00 0.00 47 907.2
20260509004111 64 359 10.0 23.0 0.00 0.00 0.00 49 906.9
20260509003611 63 18 11.0 17.0 0.00 0.00 0.00 49 906.7
20260509003111 63 35 13.0 24.0 0.00 0.00 0.00 47 906.8
20260509002611 63 38 13.0 22.0 0.00 0.00 0.00 50 906.6
20260509002111 63 35 10.0 19.0 0.00 0.00 0.00 50 906.7
20260509001611 63 35 12.0 17.0 0.00 0.00 0.00 52 906.6
20260509001111 62 27 13.0 27.0 0.00 0.00 0.00 54 906.8
20260509000611 63 32 11.0 21.0 0.00 0.00 0.00 49 906.6
20260509000111 63 4 10.0 20.0 0.00 0.00 0.00 48 906.5
20260508235611 62 25 10.0 16.0 0.00 0.00 0.00 52 906.5
20260508235111 62 31 8.0 16.0 0.00 0.00 0.00 50 906.5
20260508234611 62 20 8.0 13.0 0.00 0.00 0.00 54 906.5
20260508234111 62 37 9.0 14.0 0.00 0.00 0.00 53 906.6
20260508233611 62 33 10.0 22.0 0.00 0.00 0.00 52 906.6
20260508233111 62 13 11.0 15.0 0.00 0.00 0.00 53 906.5
20260508232611 62 4 11.0 22.0 0.00 0.00 0.00 50 906.2
20260508232111 62 4 10.0 20.0 0.00 0.00 0.00 51 906.2
20260508231611 61 35 10.0 21.0 0.00 0.00 0.00 55 906.3
20260508231111 61 37 10.0 21.0 0.00 0.00 0.00 52 906.2
20260508230611 61 31 11.0 22.0 0.00 0.00 0.00 53 906.3
20260508230111 61 31 11.0 23.0 0.00 0.00 0.00 52 906.1
20260508225611 61 20 11.0 21.0 0.00 0.00 0.00 52 905.9
20260508225111 61 36 11.0 19.0 0.00 0.00 0.00 55 906.1
20260508224611 61 29 11.0 25.0 0.00 0.00 0.00 53 905.9
20260508224111 61 26 10.0 18.0 0.00 0.00 0.00 54 905.9
20260508223611 60 35 9.0 19.0 0.00 0.00 0.00 55 905.9
20260508223111 60 31 10.0 18.0 0.00 0.00 0.00 58 905.8
20260508222611 60 43 10.0 18.0 0.00 0.00 0.00 55 905.7
20260508222111 60 43 9.0 19.0 0.00 0.00 0.00 56 905.7
20260508221611 60 35 9.0 15.0 0.00 0.00 0.00 58 905.8
20260508221111 60 23 11.0 21.0 0.00 0.00 0.00 57 905.7
20260508220611 60 35 12.0 22.0 0.00 0.00 0.00 60 905.6
20260508220111 60 34 11.0 20.0 0.00 0.00 0.00 56 905.5
20260508215611 59 18 9.0 17.0 0.00 0.00 0.00 59 905.5
20260508215111 59 25 9.0 19.0 0.00 0.00 0.00 60 905.5
20260508214611 59 39 8.0 16.0 0.00 0.00 0.00 65 905.4
20260508214111 59 31 7.0 21.0 0.00 0.00 0.00 61 905.3
20260508213611 58 21 5.0 15.0 0.00 0.00 0.00 63 905.3
20260508213111 58 359 5.0 14.0 0.00 0.00 0.00 63 905.1
20260508212611 58 37 6.0 13.0 0.00 0.00 0.00 65 905.3
20260508212112 58 43 6.0 15.0 0.00 0.00 0.00 63 905.0
20260508211612 58 23 6.0 11.0 0.00 0.00 0.00 65 904.9
20260508211111 58 15 7.0 11.0 0.00 0.00 0.00 64 904.9
20260508210612 57 43 7.0 12.0 0.00 0.00 0.00 64 905.0
20260508210112 58 38 6.0 13.0 0.00 0.00 0.00 65 904.9
20260508205612 58 25 6.0 13.0 0.00 0.00 0.00 65 904.9
20260508205112 58 37 5.0 13.0 0.00 0.00 0.00 66 904.9
20260508204612 58 29 5.0 9.0 0.00 0.00 0.00 65 904.8
20260508204112 58 45 6.0 9.0 0.00 0.00 0.00 64 904.9
20260508203612 58 29 6.0 11.0 0.00 0.00 0.00 63 904.5
20260508203112 58 354 7.0 14.0 0.00 0.00 0.00 63 904.6
20260508202612 58 43 6.0 13.0 0.00 0.00 0.00 64 904.7
20260508202112 58 32 5.0 14.0 0.00 0.00 0.00 65 904.7
20260508201612 58 25 4.0 11.0 0.00 0.00 0.00 65 904.7
20260508201112 58 16 4.0 11.0 0.00 0.00 0.00 65 904.8
20260508200612 58 38 3.0 11.0 0.00 0.00 0.00 63 904.8
20260508200112 58 37 3.0 6.0 0.00 0.01 0.00 66 904.6
20260508195612 58 40 4.0 9.0 0.00 0.01 0.00 68 904.6
20260508195112 58 27 5.0 8.0 0.00 0.01 0.00 62 904.0
20260508194612 58 12 5.0 11.0 0.00 0.01 0.00 62 904.4
20260508194112 58 25 6.0 11.0 0.00 0.01 0.00 61 904.2
20260508193612 58 43 5.0 12.0 0.00 0.01 0.00 62 904.1
20260508193112 59 41 3.0 7.0 0.00 0.01 0.00 61 904.1
20260508192612 58 26 4.0 10.0 0.00 0.01 0.00 63 904.0
20260508192112 59 23 5.0 13.0 0.00 0.01 0.00 61 904.1
20260508191612 59 39 6.0 12.0 0.00 0.01 0.00 62 904.0
20260508191112 59 4 7.0 12.0 0.00 0.01 0.00 61 904.1
20260508190612 59 39 7.0 15.0 0.00 0.01 0.00 63 903.9
20260508190112 59 27 8.0 12.0 0.00 0.01 0.00 61 903.9
20260508185612 59 35 9.0 17.0 0.00 0.01 0.00 61 904.1
20260508185112 59 26 8.0 18.0 0.00 0.01 0.00 61 904.1
20260508184612 59 22 7.0 15.0 0.00 0.01 0.00 62 903.8
20260508184112 59 341 6.0 15.0 0.00 0.01 0.00 64 903.7
20260508183612 59 19 7.0 9.0 0.00 0.01 0.00 64 903.6
20260508183112 59 36 8.0 16.0 0.00 0.01 0.00 62 903.7
20260508182612 59 13 8.0 17.0 0.00 0.01 0.00 63 903.6
20260508182112 59 343 6.0 15.0 0.00 0.01 0.00 63 903.6
20260508181612 59 29 5.0 11.0 0.00 0.01 0.00 65 903.6
20260508181112 59 35 4.0 11.0 0.00 0.01 0.00 64 903.8
20260508180612 59 34 3.0 9.0 0.00 0.01 0.00 66 903.8
20260508180112 59 39 6.0 12.0 0.00 0.01 0.00 64 903.7
20260508175612 59 27 8.0 19.0 0.00 0.01 0.00 65 903.6
20260508175112 59 31 8.0 17.0 0.00 0.01 0.00 62 903.8
20260508174612 60 35 8.0 13.0 0.00 0.01 0.00 65 903.6
20260508174112 60 41 7.0 17.0 0.00 0.01 0.00 60 903.6
20260508173612 61 24 5.0 10.0 0.00 0.01 0.00 60 903.6
20260508173112 61 24 6.0 12.0 0.00 0.01 0.00 59 903.4
20260508172612 61 39 6.0 13.0 0.00 0.01 0.00 59 903.4
20260508172112 61 14 5.0 15.0 0.00 0.01 0.00 57 903.3
20260508171612 61 19 3.0 12.0 0.00 0.01 0.00 58 903.3
20260508171112 61 31 3.0 8.0 0.00 0.01 0.00 61 903.3
20260508170612 61 37 4.0 11.0 0.00 0.01 0.00 55 903.1
20260508170112 61 34 3.0 9.0 0.00 0.01 0.00 55 903.2
20260508165612 61 347 1.0 7.0 0.00 0.01 0.00 52 903.6
20260508165112 61 43 0.0 3.0 0.00 0.01 0.01 49 903.4
20260508164612 61 43 0.0 1.0 0.00 0.01 0.01 49 903.6
20260508164112 61 44 0.0 1.0 0.00 0.01 0.01 50 903.3
20260508163612 61 43 0.0 1.0 0.00 0.01 0.01 49 903.4
20260508163112 61 43 0.0 2.0 0.00 0.01 0.01 49 903.3
20260508162612 61 43 0.0 2.0 0.00 0.01 0.01 48 903.4
20260508162112 61 42 1.0 2.0 0.00 0.01 0.01 48 903.4
20260508161612 61 43 1.0 2.0 0.00 0.01 0.01 48 903.3
20260508161112 61 41 1.0 4.0 0.00 0.01 0.01 47 903.5
20260508160612 61 43 1.0 3.0 0.00 0.01 0.01 49 903.2
20260508160112 61 43 2.0 4.0 0.00 0.01 0.01 49 903.3
20260508155612 61 37 1.0 6.0 0.00 0.01 0.01 48 903.4
20260508155112 61 42 1.0 3.0 0.00 0.01 0.01 50 903.5
20260508154612 61 40 1.0 5.0 0.00 0.01 0.01 53 903.5
20260508154112 62 38 1.0 5.0 0.00 0.01 0.01 45 903.5
20260508153612 62 37 1.0 2.0 0.00 0.01 0.01 52 903.5
20260508153112 62 35 1.0 3.0 0.00 0.01 0.01 53 903.5
20260508152612 62 35 1.0 4.0 0.00 0.01 0.01 48 903.4
20260508152112 62 40 1.0 3.0 0.00 0.01 0.01 44 903.5
20260508151612 62 39 2.0 4.0 0.00 0.01 0.01 49 903.4
20260508151112 62 39 2.0 5.0 0.00 0.01 0.01 52 903.3
20260508150612 62 39 2.0 4.0 0.00 0.01 0.01 48 903.4
20260508150112 62 41 2.0 3.0 0.00 0.01 0.01 43 903.6
20260508145612 62 31 2.0 3.0 0.00 0.01 0.01 42 903.5
20260508145112 62 35 2.0 5.0 0.00 0.01 0.01 43 903.5
20260508144612 63 34 2.0 5.0 0.00 0.01 0.01 46 903.3
20260508144112 63 38 2.0 6.0 0.00 0.01 0.01 43 903.4
20260508143612 63 13 2.0 5.0 0.00 0.01 0.01 44 903.4
20260508143112 63 40 1.0 5.0 0.00 0.01 0.01 41 903.4
20260508142612 63 31 1.0 3.0 0.00 0.01 0.01 42 903.3
20260508142112 63 28 2.0 3.0 0.00 0.01 0.01 42 903.3
20260508141612 63 27 2.0 6.0 0.00 0.01 0.01 41 903.4
20260508141112 63 33 2.0 5.0 0.00 0.01 0.01 41 903.2
20260508140612 63 41 2.0 4.0 0.00 0.01 0.01 42 903.2
20260508140112 63 31 3.0 7.0 0.00 0.01 0.01 41 903.5
20260508135612 63 47 3.0 6.0 0.00 0.01 0.01 41 903.4